Location: Krakow
(50.0830°N, 19.9170°E)
Time: 18:40:19
(UTC+01:00)

SR - Pass Details

Date: 10 February 2023
Orbit: 582 x 867 km, 66.7° (Epoch: 20 March)

Event Time Altitude Azimuth Distance (km) Brightness Sun altitude
Rises 21:45:44 0° 315° (NW) 2,843 ? -45.6°
Enters shadow 21:46:18 - 313° (NW) 2,627 ? -45.7°
Reaches altitude 10° 21:48:15 10° 303° (WNW) 1,919 - -45.9°
Maximum altitude 21:51:50 27° 246° (WSW) 1,148 - -46.3°
Drops below altitude 10° 21:55:23 10° 189° (S) 1,904 - -46.7°
Sets 21:57:52 0° 177° (S) 2,815 - -47.0°
